When you browse on this site, cookies collect data to enhance your experience and personalize the content and advertising you see.
Visit our Privacy Policy to learn more. By continuing to use the site, you agree to this use of cookies and data.
  • In Hungary
  • List of Countries
  • For 7 days
  • Water Temperature
  • Satellite Maps
  • Weather Map
  • News
  • Weather Widgets
  • user-avatar
    Login

    Hourly Weather Tirana

    Today, 26 April, Friday

    Time Temperature Precipitation Wind Pressure Humidity
    00:00 +18°C° 0 mm 1 mps 757 mmHg 70%
    01:00 +18°C° 0 mm 1 mps 757 mmHg 69%
    02:00 +16°C° 0 mm 1 mps 757 mmHg 67%
    03:00 +16°C° 0 mm 1 mps 757 mmHg 66%
    04:00 +16°C° 0 mm 1 mps 757 mmHg 64%
    05:00 +19°C° 0 mm 1 mps 757 mmHg 61%
    06:00 +20°C° 0 mm 1 mps 757 mmHg 58%
    07:00 +22°C° 0 mm 1 mps 757 mmHg 55%
    08:00 +24°C° 0 mm 1 mps 757 mmHg 49%
    09:00 +26°C° 0 mm 1 mps 756 mmHg 44%
    10:00 +28°C° 0 mm 1 mps 756 mmHg 38%
    11:00 +28°C° 0 mm 2 mps 756 mmHg 40%
    12:00 +28°C° 0 mm 2 mps 756 mmHg 41%
    13:00 +29°C° 0 mm 3 mps 755 mmHg 42%
    14:00 +28°C° 0 mm 3 mps 755 mmHg 46%
    15:00 +27°C° 0 mm 3 mps 754 mmHg 50%
    16:00 +26°C° 0 mm 3 mps 754 mmHg 53%
    17:00 +24°C° 0 mm 2 mps 754 mmHg 58%
    18:00 +21°C° 0 mm 2 mps 754 mmHg 63%
    19:00 +19°C° 0 mm 2 mps 754 mmHg 67%
    20:00 +19°C° 0 mm 2 mps 754 mmHg 68%
    21:00 +19°C° 0 mm 2 mps 754 mmHg 68%
    22:00 +18°C° 0 mm 2 mps 754 mmHg 69%
    23:00 +18°C° 0 mm 2 mps 754 mmHg 69%

    Tomorrow, 27 April, Saturday

    Time Temperature Precipitation Wind Pressure Humidity
    00:00 +18°C° 0 mm 2 mps 754 mmHg 69%
    01:00 +18°C° 0 mm 2 mps 754 mmHg 70%
    02:00 +18°C° 0 mm 2 mps 753 mmHg 70%
    03:00 +17°C° 0 mm 2 mps 753 mmHg 70%
    04:00 +17°C° 0 mm 2 mps 753 mmHg 70%
    05:00 +18°C° 0 mm 2 mps 753 mmHg 69%
    06:00 +19°C° 0 mm 2 mps 753 mmHg 68%
    07:00 +19°C° 0 mm 3 mps 753 mmHg 67%
    08:00 +20°C° 0 mm 3 mps 753 mmHg 64%
    09:00 +21°C° 0 mm 3 mps 753 mmHg 62%
    10:00 +22°C° 0 mm 4 mps 753 mmHg 59%
    11:00 +22°C° 0.3 mm 4 mps 753 mmHg 60%
    12:00 +22°C° 0.3 mm 3 mps 752 mmHg 62%
    13:00 +21°C° 0.3 mm 3 mps 752 mmHg 63%
    14:00 +21°C° 0.1 mm 3 mps 752 mmHg 62%
    15:00 +20°C° 0.1 mm 3 mps 752 mmHg 61%
    16:00 +20°C° 0.1 mm 3 mps 751 mmHg 60%
    17:00 +18°C° 0 mm 2 mps 752 mmHg 65%
    18:00 +18°C° 0 mm 1 mps 752 mmHg 70%
    19:00 +14°C° 0 mm 0 mps 752 mmHg 75%
    20:00 +15°C° 0 mm 1 mps 753 mmHg 76%
    21:00 +15°C° 0 mm 1 mps 753 mmHg 77%
    22:00 +14°C° 0 mm 1 mps 754 mmHg 78%
    23:00 +14°C° 0 mm 1 mps 754 mmHg 80%

    Day after tomorrow, 28 April, Sunday

    Time Temperature Precipitation Wind Pressure Humidity
    00:00 +13°C° 0 mm 2 mps 754 mmHg 82%
    01:00 +13°C° 0 mm 2 mps 753 mmHg 83%
    02:00 +13°C° 0 mm 2 mps 753 mmHg 85%
    03:00 +12°C° 0 mm 2 mps 753 mmHg 86%
    04:00 +12°C° 0 mm 2 mps 753 mmHg 87%
    05:00 +13°C° 0 mm 2 mps 753 mmHg 81%
    06:00 +15°C° 0 mm 2 mps 753 mmHg 76%
    07:00 +16°C° 0 mm 2 mps 753 mmHg 71%
    08:00 +17°C° 0 mm 2 mps 753 mmHg 65%
    09:00 +18°C° 0 mm 2 mps 753 mmHg 60%
    10:00 +19°C° 0 mm 3 mps 753 mmHg 54%
    11:00 +19°C° 0 mm 3 mps 753 mmHg 53%
    12:00 +20°C° 0 mm 4 mps 753 mmHg 52%
    13:00 +20°C° 0 mm 4 mps 753 mmHg 51%
    14:00 +20°C° 0 mm 4 mps 752 mmHg 53%
    15:00 +19°C° 0 mm 4 mps 752 mmHg 56%
    16:00 +19°C° 0 mm 4 mps 752 mmHg 59%
    17:00 +17°C° 0 mm 3 mps 752 mmHg 67%
    18:00 +15°C° 0 mm 2 mps 752 mmHg 75%
    19:00 +14°C° 0 mm 1 mps 752 mmHg 83%
    20:00 +13°C° 0 mm 1 mps 752 mmHg 83%
    21:00 +13°C° 0 mm 1 mps 753 mmHg 82%
    22:00 +13°C° 0 mm 2 mps 753 mmHg 82%
    23:00 +13°C° 0 mm 1 mps 753 mmHg 81%

    29 April, Monday

    Time Temperature Precipitation Wind Pressure Humidity
    00:00 +12°C° 0 mm 1 mps 753 mmHg 81%
    01:00 +12°C° 0 mm 1 mps 753 mmHg 80%
    02:00 +12°C° 0 mm 2 mps 752 mmHg 77%
    03:00 +12°C° 0 mm 2 mps 752 mmHg 74%
    04:00 +10°C° 0 mm 2 mps 752 mmHg 71%
    05:00 +13°C° 0 mm 2 mps 752 mmHg 65%
    06:00 +13°C° 0 mm 3 mps 752 mmHg 58%
    07:00 +16°C° 0 mm 3 mps 752 mmHg 52%
    08:00 +17°C° 0 mm 2 mps 752 mmHg 47%
    09:00 +19°C° 0 mm 2 mps 752 mmHg 43%
    10:00 +20°C° 0 mm 2 mps 752 mmHg 39%
    11:00 +20°C° 0 mm 3 mps 752 mmHg 42%
    12:00 +21°C° 0 mm 4 mps 751 mmHg 44%
    13:00 +21°C° 0 mm 5 mps 751 mmHg 47%
    14:00 +20°C° 0.1 mm 5 mps 751 mmHg 54%
    15:00 +20°C° 0.1 mm 5 mps 751 mmHg 60%
    16:00 +19°C° 0.1 mm 5 mps 751 mmHg 67%
    17:00 +16°C° 0 mm 5 mps 751 mmHg 74%
    18:00 +15°C° 0 mm 4 mps 751 mmHg 82%
    19:00 +13°C° 0 mm 4 mps 751 mmHg 89%
    20:00 +13°C° 0.3 mm 3 mps 751 mmHg 90%
    21:00 +13°C° 0.3 mm 3 mps 752 mmHg 90%
    22:00 +12°C° 0.3 mm 3 mps 752 mmHg 91%
    23:00 +13°C° 0.5 mm 3 mps 752 mmHg 89%

    30 April, Tuesday

    Time Temperature Precipitation Wind Pressure Humidity
    00:00 +13°C° 0.5 mm 3 mps 752 mmHg 87%
    01:00 +13°C° 0.5 mm 3 mps 752 mmHg 85%
    02:00 +13°C° 0.5 mm 3 mps 751 mmHg 85%
    03:00 +13°C° 0.5 mm 3 mps 751 mmHg 86%
    04:00 +13°C° 0.5 mm 3 mps 751 mmHg 86%
    05:00 +13°C° 0.6 mm 3 mps 751 mmHg 85%
    06:00 +13°C° 0.6 mm 3 mps 751 mmHg 84%
    07:00 +13°C° 0.6 mm 3 mps 751 mmHg 82%
    08:00 +14°C° 1 mm 4 mps 751 mmHg 84%
    09:00 +14°C° 1 mm 4 mps 751 mmHg 85%
    10:00 +14°C° 1 mm 5 mps 751 mmHg 87%
    11:00 +14°C° 0.3 mm 5 mps 751 mmHg 82%
    12:00 +15°C° 0.3 mm 5 mps 751 mmHg 77%
    13:00 +15°C° 0.3 mm 5 mps 751 mmHg 73%
    14:00 +16°C° 0.1 mm 5 mps 750 mmHg 70%
    15:00 +16°C° 0.1 mm 5 mps 750 mmHg 67%
    16:00 +17°C° 0.1 mm 4 mps 750 mmHg 64%
    17:00 +15°C° 0 mm 4 mps 750 mmHg 70%
    18:00 +13°C° 0 mm 3 mps 751 mmHg 77%
    19:00 +13°C° 0 mm 2 mps 751 mmHg 83%
    20:00 +12°C° 0 mm 1 mps 751 mmHg 84%
    21:00 +12°C° 0 mm 1 mps 751 mmHg 86%
    22:00 +11°C° 0 mm 1 mps 751 mmHg 87%
    23:00 +11°C° 0 mm 1 mps 751 mmHg 87%

    1 May, Wednesday

    Time Temperature Precipitation Wind Pressure Humidity
    00:00 +11°C° 0 mm 1 mps 751 mmHg 87%
    01:00 +10°C° 0 mm 2 mps 751 mmHg 87%
    02:00 +10°C° 0 mm 2 mps 751 mmHg 86%
    03:00 +10°C° 0 mm 2 mps 751 mmHg 84%
    04:00 +10°C° 0 mm 3 mps 751 mmHg 83%
    05:00 +11°C° 0 mm 3 mps 751 mmHg 80%
    06:00 +11°C° 0 mm 3 mps 751 mmHg 78%
    07:00 +12°C° 0 mm 3 mps 750 mmHg 75%
    08:00 +13°C° 0 mm 3 mps 750 mmHg 72%
    09:00 +16°C° 0 mm 3 mps 750 mmHg 69%
    10:00 +17°C° 0 mm 2 mps 750 mmHg 66%
    11:00 +17°C° 0.2 mm 3 mps 750 mmHg 66%
    12:00 +18°C° 0.2 mm 4 mps 750 mmHg 65%
    13:00 +18°C° 0.2 mm 4 mps 750 mmHg 65%
    14:00 +18°C° 0.1 mm 4 mps 750 mmHg 68%
    15:00 +17°C° 0.1 mm 4 mps 750 mmHg 71%
    16:00 +17°C° 0.1 mm 4 mps 750 mmHg 74%
    17:00 +14°C° 0.1 mm 3 mps 750 mmHg 79%
    18:00 +14°C° 0.1 mm 2 mps 750 mmHg 84%
    19:00 +13°C° 0.1 mm 1 mps 750 mmHg 89%
    20:00 +12°C° 0 mm 1 mps 750 mmHg 89%
    21:00 +12°C° 0 mm 2 mps 751 mmHg 90%
    22:00 +12°C° 0 mm 2 mps 751 mmHg 90%
    23:00 +12°C° 0 mm 2 mps 751 mmHg 90%
    Show more